Regional Weather Roundup
Issued by NWS

Home | Current Version | Previous Version | Text Only | Print | Product List | Glossary Off
Versions: 1 2 3 4 5 6 7 8 9 10 11 12 13 14 15 16 17 18 19 20 21 22 23 24 25 26 27 28 29 30 31 32 33 34 35 36 37 38 39 40 41 42 43 44 45 46 47 48 49 50

000
ASUS43 KIND 200609
RWRIN

WEATHER ROUNDUP FOR INDIANA
NATIONAL WEATHER SERVICE INDIANAPOLIS IN
100 AM EST SAT JAN 20 2018

NOTE: "FAIR" INDICATES FEW OR NO CLOUDS BELOW 12,000 FEET WITH NO
SIGNIFICANT WEATHER AND/OR OBSTRUCTIONS TO VISIBILITY.

* - STATION DOES NOT REPORT WEATHER SUCH AS PRECIPITATION OR FOG.

+ - STATION NOT QUALITY CONTROLLED BY THE NATIONAL WEATHER SERVICE.
    USE DATA WITH CAUTION...ESPECIALLY DEWPOINT AND RELATIVE
    HUMIDITY OBSERVATIONS.

INZ001>003-010>013-019-020-200700-
NORTHWEST INDIANA

CITY           SKY/WX    TMP DP  RH WIND       PRES   REMARKS
GARY /AIRPORT/ FAIR      38  27  63 SW12G24   29.82S WCI  31
KNOX *+        FAIR      34  27  75 SW13      29.85S WCI  25
LA PORTE +     FAIR      33  26  73 SW14G20   29.85S WCI  24
6HR MIN TEMP:  32; 6HR MAX TEMP:  35;

MICHIGAN CITY+ FAIR      36  27  69 S12G23    29.83S WCI  27
MONTICELLO +   FAIR      33  23  68 SW15      29.90R WCI  22
6HR MIN TEMP:  33; 6HR MAX TEMP:  35;

RENSSELAER +   FAIR      32  25  74 SW15      29.88R WCI  22
VALPARAISO     FAIR      35  27  72 SW15      29.84S WCI  25
6HR MIN TEMP:  35; 6HR MAX TEMP:  36;


$$

LMZ046-743>745-200700-
SOUTHERN LAKE MICHIGAN

STATION/POSITION TIME  TEMP    WIND        PRES    WAVE
                       AIR SEA DIR/SP/G            HT
                 (UTC) (F)     (DEG/KT/KT) (MB)    (FT)
BURNS HARBOR     0540   38     210/ 18/ 27 1010.2R
MICHIGAN CITY    0540   38     190/ 20/ 23   N/A

$$

INZ004-005-014>016-021>024-200700-
NORTH CENTRAL INDIANA

CITY           SKY/WX    TMP DP  RH WIND       PRES   REMARKS
GOSHEN         FAIR      33  24  69 SW21G30   29.84S WCI  21
6HR MIN TEMP:  33; 6HR MAX TEMP:  35;

LOGANSPORT +   FAIR      32  23  69 SW16      29.90R WCI  21
PERU/GRISSOM   FAIR      33  25  72 SW16      29.88S WCI  23
6HR MIN TEMP:  33; 6HR MAX TEMP:  34;

ROCHESTER +    FAIR      36  27  69 SW9       29.88R WCI  29
SOUTH BEND     FAIR      33  24  69 SW18      29.84R WCI  22
6HR MIN TEMP:  33; 6HR MAX TEMP:  35;

WARSAW +       FAIR      34  23  64 SW13G22   29.86R WCI  25

$$

INZ006>009-017-018-025>027-200700-
NORTHEAST INDIANA

CITY           SKY/WX    TMP DP  RH WIND       PRES   REMARKS
AUBURN +       FAIR     N/A N/A N/A SW13      29.86R
FORT WAYNE     FAIR      34  25  69 SW16      29.87S WCI  24
6HR MIN TEMP:  33; 6HR MAX TEMP:  35;

HUNTINGTON +   FAIR      34  23  64 SW13G22   29.88F WCI  25
6HR MIN TEMP:  32; 6HR MAX TEMP:  35;

KENDALLVILLE + FAIR      34  24  68 SW15      29.84S WCI  24

$$

INZ028-029-035-036-043>045-051>053-200700-
WEST CENTRAL INDIANA

CITY           SKY/WX    TMP DP  RH WIND       PRES   REMARKS
CRAWFORDSVL +  FAIR      31  22  70 MISG      29.93S
6HR MIN TEMP:  31; 6HR MAX TEMP:  32;

GREENCASTLE +  FAIR      34  19  55 SW7       29.97S WCI  28
LAFAYETTE      FAIR      33  24  69 SW12      29.92R WCI  24
6HR MIN TEMP:  33; 6HR MAX TEMP:  34;

TERRE HAUTE    FAIR      33  20  58 S8        29.99R WCI  26
6HR MIN TEMP:  33; 6HR MAX TEMP:  35;


$$

INZ030>032-037>040-046>048-054>057-064-065-200700-
CENTRAL INDIANA

CITY           SKY/WX    TMP DP  RH WIND       PRES   REMARKS
FRANKFORT +    FAIR      35  26  70 SW17      29.93R WCI  24
6HR MIN TEMP:  35; 6HR MAX TEMP:  36;

GREENWOOD *+   FAIR      38  23  55 SW12G17   29.97S WCI  30
INDIANAPOLIS   MOCLDY    36  22  56 SW17      29.96R WCI  26
6HR MIN TEMP:  34; 6HR MAX TEMP:  37;

-EAGLE CREEK   FAIR      36  21  54 SW10G21   29.95S WCI  28
6HR MIN TEMP:  36; 6HR MAX TEMP:  38;

MARION +       FAIR      33  24  70 SW18      29.91S WCI  22
MT COMFORT *+  FAIR      34  27  75 SW12      29.96S WCI  25
SHELBYVILLE    FAIR      31  20  63 S10       29.98S WCI  22
6HR MIN TEMP:  31; 6HR MAX TEMP:  35;

ZIONSVILLE +   FAIR      33  22  63 SW22      29.94R WCI  21
6HR MIN TEMP:  33; 6HR MAX TEMP:  35;


$$

INZ033-034-041-042-049-050-058-059-200700-
EAST CENTRAL INDIANA

CITY           SKY/WX    TMP DP  RH WIND       PRES   REMARKS
MUNCIE         FAIR      35  22  58 SW17G25   29.91S WCI  25
6HR MIN TEMP:  35; 6HR MAX TEMP:  37;

RICHMOND +     FAIR      32  23  69 SW16      29.96F WCI  21

$$

INZ060-061-067>069-081>083-085>088-200700-
SOUTHWEST INDIANA

CITY           SKY/WX    TMP DP  RH WIND       PRES   REMARKS
EVANSVILLE     FAIR      36  21  54 SW10      30.06S WCI  28
6HR MIN TEMP:  36; 6HR MAX TEMP:  39;

HUNTINGBURG +  FAIR      36  22  56 S14       30.06R WCI  27
6HR MIN TEMP:  35; 6HR MAX TEMP:  37;

WASHINGTON +   FAIR      34  19  52 S9        30.03R WCI  27
6HR MIN TEMP:  32; 6HR MAX TEMP:  36;


$$

INZ062-063-066-070>080-084-089>092-200700-
SOUTH CENTRAL AND SOUTHEAST INDIANA

CITY           SKY/WX    TMP DP  RH WIND       PRES   REMARKS
BATESVILLE *+    N/A    N/A N/A N/A MISG        N/A
BEDFORD +      FAIR      37  19  48 SW13      30.02R WCI  29
BLOOMINGTON    FAIR      37  20  50 SW17G25   30.00R WCI  27
6HR MIN TEMP:  36; 6HR MAX TEMP:  38;

FRENCH LICK *+ FAIR      36  18  48 SW13G18   30.03S WCI  27
MADISON *+     FAIR      34  23  64 S7        30.05S WCI  28
NORTH VERNON + FAIR      32  21  64 S9        30.02S WCI  24
SEYMOUR +      FAIR      34  21  60 S6        30.03S WCI  29

$$





USA.gov is the U.S. government's official web portal to all federal, state and local government web resources and services.